Regional Weather Roundup
Issued by NWS

Home | Current Version | Previous Version | Text Only | Print | Product List | Glossary On
Versions: 1 2 3 4 5 6 7 8 9 10 11 12 13 14 15 16 17 18 19 20 21 22 23 24 25 26 27 28 29 30 31 32 33 34 35 36 37 38 39 40 41 42 43 44 45 46 47 48 49 50
000
ASUS44 KBMX 251310
RWRAL

ALABAMA REGIONAL WEATHER ROUNDUP
NATIONAL WEATHER SERVICE BIRMINGHAM AL
800 AM CDT TUE APR 25 2017

NOTE: "FAIR" INDICATES FEW OR NO CLOUDS BELOW 12,000 FEET
WITH NO SIGNIFICANT WEATHER AND/OR OBSTRUCTIONS TO VISIBILITY.

THE REMARK "TC" DENOTES TEMPERATURE IN DEGREES CELSIUS.

ALZ001>011-014-016>018-020-251400-
NORTH ALABAMA

CITY           SKY/WX    TMP DP  RH WIND       PRES   REMARKS
MUSCLE SHOALS  FOG       53  52  96 CALM      29.82R VSB 1/4
HUNTSVILLE     FOG       56  56 100 CALM      29.82S VSB 1/8
DECATUR        FOG       54  54 100 NE3       29.83R VSB 1/4
HALEYVILLE     FAIR      56  55  97 CALM      29.83S
GADSDEN        CLOUDY    55  54  96 NW3       29.82S FOG
$$

ALZ012-013-022-023-030>036-040>044-251400-
WEST CENTRAL ALABAMA

CITY           SKY/WX    TMP DP  RH WIND       PRES   REMARKS
TUSCALOOSA     MOSUNNY   55  54  96 CALM      29.83R
$$

ALZ015-024>027-033>036-040>044-251400-
CENTRAL ALABAMA

CITY           SKY/WX    TMP DP  RH WIND       PRES   REMARKS
BIRMINGHAM     FOG       56  56 100 NE3       29.84R VSB 3/4
MONTGOMERY     SUNNY     60  53  77 CALM      29.83R
SHELBY CO ARPT SUNNY     60  57  89 CALM      29.82R
MAXWELL AFB    SUNNY     60  56  85 CALM      29.82R
GREENVILLE     FAIR      59  53  80 CALM      29.82R
$$

ALZ019-021-028-029-037-038-045>048-251400-
EAST CENTRAL ALABAMA

CITY           SKY/WX    TMP DP  RH WIND       PRES   REMARKS
ANNISTON       CLOUDY    55  55 100 SW7       29.81S FOG
ALEXANDER CITY SUNNY     56  54  92 W3        29.81S
AUBURN         SUNNY     59  55  87 NW8       29.82R
$$

ALZ051>064-251400-
SOUTHWEST ALABAMA

CITY           SKY/WX    TMP DP  RH WIND       PRES   REMARKS
MOBILE         MOSUNNY   65  57  75 CALM      29.84R
BROOKLEY FIELD SUNNY     65  61  87 CALM      29.85R
EVERGREEN      MOSUNNY   56  53  90 CALM      29.84R
$$

ALZ049-050-065>069-251400-
SOUTHEAST ALABAMA

CITY           SKY/WX    TMP DP  RH WIND       PRES   REMARKS
DOTHAN         SUNNY     61  57  87 NW7       29.86R
OZARK          SUNNY     60  53  80 NW5       29.83R
TROY           SUNNY     57  55  93 CALM      29.83S
EUFAULA        FAIR      62  56  80 CALM      29.80S
$$



USA.gov is the U.S. government's official web portal to all federal, state and local government web resources and services.